Change the Weather History Date:

Monday, January 20, 2014

  Actual Average Record
Temperature  
Mean Temperature 38 °F -  
Max Temperature 43 °F - - ()
Min Temperature 33 °F - - ()
Degree Days  
Heating Degree Days 27    
Moisture  
Dew Point 35 °F    
Average Humidity 87    
Maximum Humidity 100    
Minimum Humidity 72    
Precipitation  
Precipitation 0.00 in - - ()
Sea Level Pressure  
Sea Level Pressure 29.69 in    
Wind  
Wind Speed 8 mph ()    
Max Wind Speed 22 mph    
Max Gust Speed -    
Visibility 8.8 miles    
Events      
T = Trace of Precipitation, MM = Missing Value Source: Averaged Metar Reports

Daily Weather History Graph

Daily Weather History Graph

Search for Another Location

Airport or City:

Trip Planner

Search our weather history database for the weather conditions in past years. The results will help you decide how hot, cold, wet, or windy it might be!

Date:

Astronomy

Jan. 20, 2014 Rise Set
Actual Time 8:39 AM GMT 4:53 PM GMT
Civil Twilight 7:59 AM GMT 5:33 PM GMT
Nautical Twilight 7:15 AM GMT 6:17 PM GMT
Astronomical Twilight 6:33 AM GMT 6:59 PM GMT
Moon 10:02 PM GMT (1/20) 9:50 AM GMT (1/20)
Length of Visible Light 9h 34m
Length of Day
8h 13m
Waning Gibbous, 84% of the Moon is Illuminated
Jan 20
Waning Gibbous
Jan 24
Last Quarter
Jan 30
New
Feb 6
First Quarter
Feb 14
Full

Hourly Weather History & Observations

Time (GMT) Temp. Windchill Dew Point Humidity Pressure Visibility Wind Dir Wind Speed Gust Speed Precip Events Conditions
12:00 AM 39 °F - 37 °F 92% 29.50 in - West 11.2 mph - -  
1:00 AM 38 °F - 36 °F 91% 29.52 in - West 13.4 mph - -  
2:00 AM 38 °F - 36 °F 89% 29.55 in - WNW 8.9 mph - -  
3:00 AM 38 °F - 36 °F 90% 29.57 in - West 6.7 mph - -  
4:00 AM 35 °F - 35 °F 97% 29.60 in - WSW 6.7 mph - -  
5:00 AM 35 °F - 33 °F 91% 29.62 in - West 8.9 mph - -  
6:00 AM 35 °F - 33 °F 87% 29.65 in 16 mi WSW 6.7 mph - -   Partly Cloudy
6:00 AM 33.8 °F 28.6 °F 32.0 °F 93% 29.59 in - WSW 5.8 mph - N/A   Clear
7:00 AM 34 °F - 32 °F 91% 29.68 in 16 mi WSW 4.5 mph - -   Scattered Clouds
7:30 AM 33.8 °F 27.0 °F 32.0 °F 93% 29.65 in - WSW 8.1 mph - N/A   Clear
8:00 AM 34 °F - 32 °F 91% 29.71 in 16 mi WSW 11.2 mph - -   Scattered Clouds
8:00 AM 33.8 °F 25.8 °F 32.0 °F 93% 29.65 in - WSW 10.4 mph - N/A   Clear
8:30 AM 33.8 °F 27.7 °F 32.0 °F 93% 29.68 in - SW 6.9 mph - N/A   Clear
9:00 AM 33 °F - 32 °F 94% 29.73 in 22 mi SW 6.7 mph - -   Scattered Clouds
9:00 AM 33.8 °F 28.6 °F 32.0 °F 93% 29.68 in - SW 5.8 mph - N/A   Clear
9:30 AM 33.8 °F 27.7 °F 32.0 °F 93% 29.71 in - SW 6.9 mph - N/A   Clear
10:00 AM 36 °F - 32 °F 81% 29.75 in 22 mi SSW 4.5 mph - -   Scattered Clouds
10:00 AM 35.6 °F 31.7 °F 32.0 °F 87% 29.71 in - SSW 4.6 mph - N/A   Clear
10:30 AM 37.4 °F 32.8 °F 33.8 °F 87% 29.71 in 6.2 mi SW 5.8 mph - N/A   Partly Cloudy
11:00 AM 38 °F - 35 °F 82% 29.76 in 22 mi SSW 6.7 mph - -   Scattered Clouds
11:00 AM 37.4 °F 32.8 °F 33.8 °F 87% 29.71 in 6.2 mi SSW 5.8 mph - N/A   Partly Cloudy
11:30 AM 39.2 °F 34.2 °F 35.6 °F 87% 29.74 in 6.2 mi SW 6.9 mph - N/A   Partly Cloudy
12:00 PM 40 °F - 36 °F 80% 29.77 in 22 mi SSW 6.7 mph - -   Scattered Clouds
12:00 PM 41.0 °F 37.1 °F 35.6 °F 81% 29.74 in 6.2 mi SSW 5.8 mph - N/A   Partly Cloudy
12:30 PM 41.0 °F 38.0 °F 37.4 °F 87% 29.74 in 6.2 mi South 4.6 mph - N/A   Partly Cloudy
1:00 PM 42 °F - 36 °F 73% 29.76 in 22 mi SSW 6.7 mph - -   Scattered Clouds
1:00 PM 42.8 °F 38.6 °F 35.6 °F 76% 29.74 in 6.2 mi SSW 6.9 mph - N/A   Partly Cloudy
1:30 PM 42.8 °F 38.6 °F 35.6 °F 76% 29.74 in 6.2 mi SSW 6.9 mph - N/A   Partly Cloudy
2:00 PM 41 °F - 37 °F 81% 29.76 in 31 mi SSW 4.5 mph - -   Scattered Clouds
2:00 PM 41.0 °F 38.0 °F 37.4 °F 87% 29.74 in 6.2 mi SSW 4.6 mph - N/A   Partly Cloudy
2:30 PM 42.8 °F 38.6 °F 35.6 °F 76% 29.71 in 6.2 mi South 6.9 mph - N/A   Partly Cloudy
3:00 PM 43 °F - 37 °F 72% 29.75 in 31 mi South 6.7 mph - -   Scattered Clouds
3:00 PM 42.8 °F 38.6 °F 37.4 °F 81% 29.71 in 6.2 mi South 6.9 mph - N/A   Partly Cloudy
3:30 PM 42.8 °F 39.3 °F 37.4 °F 81% 29.71 in 6.2 mi South 5.8 mph - N/A   Partly Cloudy
4:00 PM 40 °F - 37 °F 86% 29.75 in 31 mi SSE 8.9 mph - -   Scattered Clouds
4:00 PM 39.2 °F 33.6 °F 37.4 °F 93% 29.71 in 6.2 mi SSE 8.1 mph - N/A   Partly Cloudy
4:30 PM 39.2 °F 34.2 °F 37.4 °F 93% 29.71 in 6.2 mi SSE 6.9 mph - N/A   Scattered Clouds
5:00 PM 38 °F - 37 °F 94% 29.75 in 25 mi SSE 8.9 mph - -   Scattered Clouds
5:00 PM 37.4 °F 30.8 °F 37.4 °F 100% 29.71 in 6.2 mi SSE 9.2 mph - N/A   Scattered Clouds
6:00 PM 38 °F - 36 °F 89% 29.74 in 16 mi SSE 8.9 mph - -   Scattered Clouds
7:00 PM 38 °F - 36 °F 92% 29.72 in 16 mi SSE 11.2 mph - -   Scattered Clouds
8:00 PM 38 °F - 36 °F 90% 29.69 in - SSE 15.7 mph - -  
9:00 PM 38 °F - 36 °F 90% 29.67 in - SSE 13.4 mph - -  
10:00 PM 39 °F - 37 °F 88% 29.64 in - SSE 17.9 mph - -  
11:00 PM 40 °F - 37 °F 84% 29.61 in - SSE 22.4 mph - -